651 Weather Reports


Display with metric or nautical units.
time (UTC)temp
F
wind
direction
speed
MPH
gust
MPH
rain 1hr
in
rain 24hr
in
rain mn
in
humidity
%
barometer
mb
20260906103105 85 0 0.0 0.0 0.00 0.00 0.00 53 1024.7
20260906101604 85 0 0.0 0.0 0.00 0.00 0.00 62 1024.7
20260906094604 83 0 0.0 0.0 0.00 0.00 0.00 68 1024.9
20260906093104 83 0 0.0 0.0 0.00 0.00 0.00 69 1024.9
20260906091605 83 0 0.0 0.0 0.00 0.00 0.00 66 1024.9
20260906090104 83 0 0.0 0.0 0.00 0.00 0.00 68 1024.9
20260906084604 83 0 0.0 0.0 0.00 0.00 0.00 67 1024.8
20260906083104 82 0 0.0 0.0 0.00 0.00 0.00 66 1024.8
20260906081606 82 0 0.0 0.0 0.00 0.00 0.00 65 1024.8
20260906080106 81 0 0.0 0.0 0.00 0.00 0.00 64 1024.7
20260906074610 81 0 0.0 0.0 0.00 0.00 0.00 65 1024.6
20260906073108 80 0 0.0 0.0 0.00 0.00 0.00 66 1024.5
20260906071604 78 0 0.0 0.0 0.00 0.00 0.00 68 1024.3
20260906070109 76 0 0.0 0.0 0.00 0.00 0.00 74 1024.3
20260906064602 75 0 0.0 0.0 0.00 0.00 0.00 75 1024.2
20260906063103 75 0 0.0 0.0 0.00 0.00 0.00 76 1024.2
20260906061626 75 0 0.0 0.0 0.00 0.00 0.00 77 1024.1
20260906060128 74 0 0.0 0.0 0.00 0.00 0.00 80 1024.0
20260906054605 72 0 0.0 0.0 0.00 0.00 0.00 83 1023.9
20260906053102 71 0 0.0 0.0 0.00 0.00 0.00 85 1023.8
20260906051609 70 0 0.0 0.0 0.00 0.00 0.00 87 1023.8
20260906050105 70 0 0.0 0.0 0.00 0.00 0.00 85 1023.6
20260906044602 70 0 0.0 0.0 0.00 0.00 0.00 78 1023.7
20260906043107 70 0 0.0 0.0 0.00 0.00 0.00 61 1023.6
20260906041602 71 0 0.0 0.0 0.00 0.00 0.00 50 1023.5
20260906040106 72 0 0.0 0.0 0.00 0.00 0.00 49 1023.5
20260906034607 73 0 0.0 0.0 0.00 0.00 0.00 48 1023.4
20260906033109 74 0 0.0 0.0 0.00 0.00 0.00 47 1023.3
20260906031603 74 0 0.0 0.0 0.00 0.00 0.00 47 1023.1
20260906024608 75 0 0.0 2.0 0.00 0.00 0.00 44 1023.2
20260906023109 74 0 0.0 0.0 0.00 0.00 0.00 44 1023.3
20260906021601 74 0 0.0 1.0 0.00 0.00 0.00 46 1023.5
20260906020108 71 0 0.0 0.0 0.00 0.00 0.00 51 1023.4
20260906014607 69 0 0.0 0.0 0.00 0.00 0.00 55 1023.5
20260906013102 70 0 0.0 0.0 0.00 0.00 0.00 60 1023.6
20260906011608 72 0 0.0 0.0 0.00 0.00 0.00 56 1023.8
20260906010112 72 0 0.0 0.0 0.00 0.00 0.00 50 1023.7
20260906004614 71 0 0.0 0.0 0.00 0.00 0.00 50 1023.7
20260906003112 71 0 0.0 0.0 0.00 0.00 0.00 51 1023.7
20260906001603 72 0 0.0 0.0 0.00 0.00 0.00 51 1023.7
20260906000111 71 0 0.0 0.0 0.00 0.00 0.00 51 1023.8
20260905234609 70 0 0.0 0.0 0.00 0.00 0.00 52 1024.0
20260905233117 70 0 0.0 0.0 0.00 0.00 0.00 52 1024.0
20260905231602 70 0 0.0 0.0 0.00 0.00 0.00 53 1024.0
20260905230110 70 0 0.0 0.0 0.00 0.00 0.00 52 1024.1
20260905224606 71 0 0.0 0.0 0.00 0.00 0.00 51 1024.1
20260905223102 71 0 0.0 0.0 0.00 0.00 0.00 50 1024.2
20260905221604 71 0 0.0 0.0 0.00 0.00 0.00 50 1024.1
20260905220107 71 0 0.0 0.0 0.00 0.00 0.00 50 1024.2
20260905214604 71 0 0.0 0.0 0.00 0.00 0.00 52 1024.1
20260905213108 70 0 0.0 0.0 0.00 0.00 0.00 57 1024.2
20260905211611 71 0 0.0 0.0 0.00 0.00 0.00 59 1024.2
20260905210114 71 0 0.0 0.0 0.00 0.00 0.00 57 1024.4
20260905204603 71 0 0.0 0.0 0.00 0.00 0.00 55 1024.4
20260905203106 71 0 0.0 0.0 0.00 0.00 0.00 58 1024.5
20260905201604 70 0 0.0 0.0 0.00 0.00 0.00 64 1024.5
20260905200106 71 0 0.0 0.0 0.00 0.00 0.00 68 1024.6
20260905194603 71 0 0.0 0.0 0.00 0.00 0.00 75 1024.5
20260905193105 72 0 0.0 0.0 0.00 0.00 0.00 85 1024.6
20260905191606 72 0 0.0 0.0 0.00 0.00 0.00 84 1024.4
20260905190104 72 0 0.0 0.0 0.00 0.00 0.00 82 1024.3
20260905184611 73 0 0.0 0.0 0.00 0.00 0.00 79 1024.2
20260905183118 73 0 0.0 0.0 0.00 0.00 0.00 76 1024.1
20260905181606 73 0 0.0 0.0 0.00 0.00 0.00 74 1023.8
20260905180109 73 0 0.0 0.0 0.00 0.00 0.00 78 1023.6
20260905174604 74 0 0.0 0.0 0.00 0.00 0.00 78 1023.8
20260905173108 74 0 0.0 0.0 0.00 0.00 0.00 79 1023.7
20260905171609 74 0 0.0 0.0 0.00 0.00 0.00 78 1023.7
20260905170111 75 0 0.0 0.0 0.00 0.00 0.00 78 1023.7
20260905164605 76 0 0.0 0.0 0.00 0.00 0.00 77 1023.8
20260905163110 77 0 0.0 0.0 0.00 0.00 0.00 75 1023.8
20260905161608 77 0 0.0 0.0 0.00 0.00 0.00 75 1023.7
20260905160105 78 0 0.0 0.0 0.00 0.00 0.00 73 1023.9
20260905154606 79 0 0.0 0.0 0.00 0.00 0.00 71 1023.9
20260905153117 80 0 0.0 0.0 0.00 0.00 0.00 70 1024.0
20260905151614 81 0 0.0 0.0 0.00 0.00 0.00 68 1023.9
20260905150105 81 0 0.0 0.0 0.00 0.00 0.00 61 1023.9
20260905144609 82 0 0.0 0.0 0.00 0.00 0.00 49 1023.8
20260905143111 83 0 0.0 0.0 0.00 0.00 0.00 55 1024.0
20260905141629 84 0 0.0 0.0 0.00 0.00 0.00 55 1023.9
20260905140109 85 0 0.0 0.0 0.00 0.00 0.00 48 1023.9
20260905134609 85 0 0.0 0.0 0.00 0.00 0.00 45 1023.9
20260905133105 85 0 0.0 0.0 0.00 0.00 0.00 45 1023.9
20260905131619 86 0 0.0 0.0 0.00 0.00 0.00 48 1024.0
20260905130106 85 0 0.0 0.0 0.00 0.00 0.00 51 1024.0
20260905124610 85 0 0.0 0.0 0.00 0.00 0.00 53 1024.1
20260905123115 86 0 0.0 0.0 0.00 0.00 0.00 56 1024.2
20260905121609 87 0 0.0 0.0 0.00 0.00 0.00 53 1024.2
20260905120112 87 0 0.0 0.0 0.00 0.00 0.00 49 1024.3
20260905114606 87 0 0.0 0.0 0.00 0.00 0.00 52 1024.3
20260905113108 86 0 0.0 2.0 0.00 0.00 0.00 56 1024.3
20260905111607 86 0 0.0 2.0 0.00 0.00 0.00 55 1024.4
20260905110109 86 0 0.0 0.0 0.00 0.00 0.00 60 1024.3
20260905104610 86 0 0.0 0.0 0.00 0.00 0.00 62 1024.4